Regional Weather Roundup
Issued by NWS Sioux Falls, SD

Home | Current Version | Previous Version | Text Only | Print | Product List | Glossary Off
Versions: 1 2 3 4 5 6 7 8 9 10 11 12 13 14 15 16 17 18 19 20 21 22 23 24 25 26 27 28 29 30 31 32 33 34 35 36 37 38 39 40 41 42 43 44 45 46 47 48 49 50

000
ASUS43 KFSD 201402
RWRFSD

WEATHER ROUNDUP FOR SE SOUTH DAKOTA/SW MINNESOTA/NW IOWA
NATIONAL WEATHER SERVICE SIOUX FALLS SD
800 AM CST FRI JAN 20 2017

NOTE: "FAIR" INDICATES FEW OR NO CLOUDS BELOW 12,000 FEET WITH NO
SIGNIFICANT WEATHER AND OR OBSTRUCTIONS TO VISIBILITY.


SDZ038>040-050-052>070-201500-
SOUTHEAST SOUTH DAKOTA

CITY           SKY/WX    TMP DP  RH WIND       PRES   REMARKS
BROOKINGS      CLOUDY    35  34  96 SE12      29.47F FOG     WCI  27
CHAMBERLAIN    CLEAR     29  29 100 CALM      29.40R FOG
HURON          CLOUDY    36  36 100 SE10      29.44R
MADISON        CLOUDY    36  36 100 SE14        N/A
MITCHELL       CLOUDY    38  37  97 SE10      29.46R
SIOUX FALLS    FOG       37  37 100 SE9       29.50S VSB 1/4
WINNER         FAIR      26  22  84 SW5       29.40R WCI  20
YANKTON        CLOUDY    36  34  93 SE9       29.49S
$$

MNZ071-072-080-081-089-090-097-098-201500-
SOUTHWEST MINNESOTA

CITY           SKY/WX    TMP DP  RH WIND       PRES   REMARKS
FAIRMONT       FOG       33  32  96 SE7       29.58S VSB 1/4 WCI  27
JACKSON        FOG       32  32 100 S5        29.55S VSB 1/4 WCI  27
LUVERNE        CLOUDY    36  34  93 SE6       29.51F FOG
MARSHALL       CLOUDY    34  34 100 SE8       29.53F FOG     WCI  27
MONTEVIDEO     CLOUDY    34  34 100 S6        29.55F FOG     WCI  29
PIPESTONE      CLOUDY    36  36 100 SE8       29.49F FOG
REDWOOD FALLS  FOG       34  32  92 SE9       29.56F VSB 1   WCI  27
TRACY          CLOUDY    35  35 100 S6        29.53F FOG
WINDOM         FOG       34  34 100 SE6       29.54F VSB 3/4 WCI  29
WORTHINGTON    FOG       33  33 100 SE8       29.53F VSB 1/4 WCI  26
$$

IAZ001>003-012>014-020>022-031-032-NEZ013-014-SDZ071-201500-
NORTHWEST IOWA

CITY           SKY/WX    TMP DP  RH WIND       PRES   REMARKS
CHEROKEE       CLOUDY    35  35 100 CALM      29.55S FOG
DENISON        CLOUDY    37  37 100 SE6       29.54S FOG
ESTHERVILLE    FOG       33  33 100 SE6       29.55F VSB 1/2 WCI  28
LE MARS        CLOUDY    37  37 100 SE9       29.54R FOG
ORANGE CITY    CLOUDY    37  37 100 SE3       29.52S FOG
SHELDON        CLOUDY    36  36 100 SE7       29.51S FOG
SIOUX CITY     CLOUDY    38  37  97 S6        29.56R FOG
SPENCER        FOG       34  34 100 E7        29.54F VSB 1/2 WCI  28
STORM LAKE     FOG       34  34 100 SE7       29.54S VSB<1/4 WCI  28
$$

ABBREVIATIONS USED IN REMARKS
   TC - TEMPERATURE IN CELSIUS
  WCI - WIND CHILL INDEX
   HX - HEAT INDEX
  VSB - VISIBILITY





USA.gov is the U.S. government's official web portal to all federal, state and local government web resources and services.